Location: Unspecified
(0.0000°N, 0.0000°E)
Time: 20:37:55
(UTC+00:00)

STARLINK-32799 - Visible Passes

Search period start: 06 March 2026 00:00
Search period end: 16 March 2026 00:00
Orbit: 482 x 484 km, 43.0° (Epoch: 6 March)

Date Brightness Start Highest point End Pass type
(mag) Time Alt. Az. Time Alt. Az. Time Alt. Az.
6 Mar ? 19:32:38 10° SSW 19:35:30 37° SSE 19:35:30 37° SSE visible
7 Mar ? 19:04:53 10° SSW 19:08:26 39° SE 19:09:51 28° E visible
8 Mar ? 18:37:05 10° SSW 18:40:36 37° SE 18:44:07 10° ENE visible
8 Mar ? 20:17:36 10° WNW 20:18:34 12° WNW 20:18:34 12° WNW visible
9 Mar ? 19:49:36 10° WNW 19:51:33 14° NW 19:53:00 11° NNW visible
10 Mar ? 19:21:33 10° WNW 19:23:38 14° NW 19:25:42 10° N visible
11 Mar ? 05:27:25 10° NNW 05:30:50 33° NE 05:34:15 10° ESE visible
11 Mar ? 18:53:29 10° W 18:55:41 15° NW 18:57:53 10° N visible
12 Mar ? 04:59:44 11° NNW 05:02:52 31° NE 05:06:15 10° ESE visible
13 Mar ? 04:34:02 27° NNE 04:34:52 30° NE 04:38:12 10° ESE visible
14 Mar ? 04:08:19 21° E 04:08:19 21° E 04:10:06 10° ESE visible
14 Mar ? 05:43:06 10° W 05:45:36 17° SW 05:48:07 10° S visible
15 Mar ? 05:16:48 17° WSW 05:17:31 18° SW 05:20:08 10° S visible
